sat.trackr.live / text

‹ back to catalog

XINGCHI-1 02A

NORAD 58496 · 2023-187A

PAYLOAD ACTIVE UNKNOWN

§ Identity

Operator
Country
EGYP
Launch date
2023-12-04
Launch site
JSC
Launch vehicle
Mass (kg)
RCS (m²)

External: N2YO · Heavens-Above · Gunter

§ Orbital elements

Epoch: 2026-09-21T22:29:33.106272Z

Period
97.00 min
Inclination
97.9215°
Eccentricity
0.0011429
Mean motion
14.84491949 rev/d
Perigee alt
607.2 km
Apogee alt
623.2 km
Semi-major
6,993.3 km
B*
1.0627e-4
RAAN
347.1692°
Arg perigee
182.3255°
Mean anomaly
177.7908°
Rev number
15,147

§ Raw data

XINGCHI-1 02A1 58496U 23187A   26264.93718873  .00000842  00000+0  10627-3 0  99912 58496  97.9215 347.1692 0011429 182.3255 177.7908 14.84491949151472

JSON: /api/v1/satellites/58496 · /tle

For live sub-satellite position, see the globe view (requires WebGL).

§ Visibility from observer

Set your observer location to see the next 7 days of passes ≥ 10°. The values pass through the URL so the page stays shareable.

No JS? Fill the form by hand. The geolocation button needs JavaScript.